Location: Krasnoyarskiy Pitomnik
(51.1333°N, 71.6167°E)
Time: 16:00:41
(UTC+00:00)

Vanguard 1 - Visible Passes

Search period start: 13 April 2024 00:00
Search period end: 23 April 2024 00:00
Orbit: 653 x 3825 km, 34.2° (Epoch: 12 April)

Date Brightness Start Highest point End Pass type
(mag) Time Alt. Az. Time Alt. Az. Time Alt. Az.
13 Apr 13.8 22:51:46 10° S 22:58:39 13° SSE 23:04:26 10° SE visible
14 Apr 13.6 23:08:11 10° S 23:18:43 18° SSE 23:26:48 10° ESE visible
15 Apr 13.4 23:25:58 10° SSW 23:38:50 22° SSE 23:48:03 10° ESE visible
16 Apr 13.9 21:31:18 10° SSE 21:37:08 12° SE 21:42:22 10° ESE visible
17 Apr 13.8 21:46:11 10° S 21:57:06 17° SE 22:06:00 10° ESE visible
18 Apr 13.6 22:03:16 10° S 22:17:05 22° SSE 22:27:46 10° ESE visible
19 Apr 13.4 22:21:19 10° SSW 22:37:08 26° SSE 22:48:49 10° ESE visible
20 Apr 13.9 20:26:25 11° SSE 20:35:06 14° SE 20:43:29 10° ESE visible
20 Apr 13.3 22:39:58 10° SSW 22:57:12 31° SSE 23:09:30 10° ESE visible
21 Apr 13.7 20:45:05 14° S 20:54:55 19° SE 21:06:14 10° ESE visible
21 Apr 13.2 22:59:04 10° SW 23:17:18 35° SSE 23:29:55 10° ESE visible
22 Apr 13.6 21:03:39 16° S 21:14:48 24° SE 21:27:48 10° E visible
22 Apr 13.1 23:18:31 10° SW 23:37:25 38° SSE 23:50:11 10° ESE visible
